Regional Weather Roundup
Issued by NWS

Home | Current Version | Previous Version | Text Only | Print | Product List | Glossary On
Versions: 1 2 3 4 5 6 7 8 9 10 11 12 13 14 15 16 17 18 19 20 21 22 23 24 25 26 27 28 29 30 31 32 33 34 35 36 37 38 39 40 41 42 43 44 45 46 47 48 49 50
417
ASUS43 KBIS 261731
RWRND
NORTH DAKOTA REGIONAL WEATHER ROUNDUP
NATIONAL WEATHER SERVICE EASTERN NORTH DAKOTA/GRAND FORKS ND
1200 PM CDT MON JUN 26 2017

  NOTE: "FAIR" INDICATES FEW OR NO CLOUDS BELOW 12,000 FEET WITH NO
  SIGNIFICANT WEATHER AND/OR OBSTRUCTIONS TO VISIBILITY.

NDZ001>003-009>011-017-261800-
...NORTHWEST NORTH DAKOTA...

CITY           SKY/WX    TMP DP  RH WIND       PRES   REMARKS
WILLISTON      FAIR      75  43  31 SE13      30.17F
MINOT          FAIR      68  36  30 VRB5      30.21F
MINOT AFB      FAIR      67  38  33 S6        30.20F
$$

NDZ018>021-031>035-040>046-261800-
...SOUTHWEST NORTH DAKOTA...

CITY           SKY/WX    TMP DP  RH WIND       PRES   REMARKS
BISMARCK       FAIR      69  44  40 CALM      30.24F
DICKINSON      FAIR      71  41  33 S16       30.18F
GARRISON         N/A     65  40  39 MISG      30.22F
HETTINGER      FAIR      71  41  33 S13G20    30.22F
$$

NDZ004>008-012>016-024-026-027-054-261800-
...NORTHEAST NORTH DAKOTA...

CITY           SKY/WX    TMP DP  RH WIND       PRES   REMARKS
GRAND FORKS    FAIR      70  43  37 NW12      30.19F
GRAND FORKS AF FAIR      69  40  35 W7        30.20F
DEVILS LAKE    FAIR      65  39  38 NW8       30.23F
$$

NDZ022-023-025-028>030-036>039-047>053-261800-
...SOUTHEAST NORTH DAKOTA...

CITY           SKY/WX    TMP DP  RH WIND       PRES   REMARKS
JAMESTOWN      FAIR      67  42  40 VRB3      30.23F
FARGO          FAIR      70  37  29 N9        30.21F
WAHPETON       FAIR      66  39  37 NW6       30.23F
$$




USA.gov is the U.S. government's official web portal to all federal, state and local government web resources and services.